Accueil
METAR-TAF:

METAR-TAF

Aéroports :

Melun, France

Aérodrome de Melun-Villaroche

latitude: 48-37N, longitude: 002-41E, altitude: 95 m

Observation

Le bulletin a été fait il y a 37 minutes, à 06:00 UTC
Vent 16 kt de sud/sud-ouest
Température 16°C
Humidité 82%
Pression 1013 hPa
Visibilité 10 km ou plus
Ciel couvert à une hauteur de 2000 ft

METAR: LFPM 210600Z AUTO 21016KT 9999 OVC020 16/13 Q1013

Heure: 08:37 (06:37 UTC)


TAF: absent

Observations et prévisions météorologiques de plus de 4000 aéroports (messages METAR et TAF).

Les stations disponibles sont représentées par des disques jaunes et rouges sur la carte.

Passer la souris dessus pour voir le nom de la station.

Cliquer dessus pour voir les observations et prévisions météorologiques.

Pour changer de carte: cliquez sur les boutons verts avec une croix noire pour zoomer, sur le bouton vert avec un tiret pour effectuer un zoom arrière, ou sur les flèches vertes pour les cartes adjacentes.


METAR-TAF: